Regional Weather Roundup
Issued by NWS Goodland, KS

Home | Current Version | Previous Version | Graphics & Text | Print | Product List | Glossary On
Versions: 1 2 3 4 5 6 7 8 9 10 11 12 13 14 15 16 17 18 19 20 21 22 23 24 25 26 27 28 29 30 31 32 33 34 35 36 37 38 39 40 41 42 43 44 45 46 47 48 49 50
000
ASUS43 KGLD 121508
RWRGLD

GOODLAND FORECAST AREA HOURLY WEATHER ROUNDUP
NATIONAL WEATHER SERVICE GOODLAND KS
800 AM MST FRI FEB 12 2016

...OFFICIAL OBSERVATIONS...

CITY           SKY/WX    TMP DP  RH WIND       PRES   REMARKS
GOODLAND KS    SUNNY     36  29  75 W6        30.33R
HILL CITY KS   SUNNY     33  29  85 N3        30.40R
IMPERIAL NEB   CLOUDY    30  26  85 CALM      30.35R
MCCOOK NEB     CLOUDY    28  26  92 N5        30.38R
AKRON CO       CLOUDY    43  26  51 NW5       30.31R
BURLINGTON CO  SUNNY     34  27  75 SW5       30.32R
LIMON CO       CLOUDY    27  22  81 CALM      30.31S
$$

...UNOFFICIAL OBSERVATIONS...

CITY           SKY/WX    TMP DP  RH WIND       PRES   REMARKS
COLBY KS       SUNNY     32  30  93 CALM      30.36R
GOVE KS          N/A     31  32 100 MISG        N/A
LENORA KS        N/A     30  32 100 MISG        N/A
NORTON KS      CLOUDY    28  25  86 N6        30.38R
SHARON SPRINGS   N/A     32  29  88 CALM        N/A
KIT CARSON CO    N/A     34  30  85 MISG        N/A
YUMA CO          N/A     31  28  89 CALM        N/A
$$



USA.gov is the U.S. government's official web portal to all federal, state and local government web resources and services.